Retour au catalogue

STARLINK-34400

ActifCommunicationsVLEO
NORAD 64463·PAYLOAD·🇺🇸 United States

Lancé Jun 18, 2025 depuis Cape Canaveral Space Force Station

Loading…

Prochains Passages (prochaines 24 heures)

TLE

FraisSource: CelesTrak SupGP

Époque: Sep 14, 2026, 22:55 UTC

1 64463C 25130AB  26257.95534722  .00050536  00000+0  16257-2 0  2571
2 64463  53.1575 290.8719 0001099  87.5014 139.3969 15.31666222    16

Suivez STARLINK-34400 en temps réel avec AllMySat

Download on the App Store